QTR1711 OEJN-EGNX

Flight info

Callsign QTR1711
Flight time N/A
Altitude 34000
Route MIGDA L677 CVO L617 NOZ L551 ANTAR UN133 KPC UN137 RIPLI DCT MAKED DCT LONTA UL608 DOLEV DCT MITNO DCT GUBOK DCT OBUTI DCT RENKA DCT INBED DCT BOMBI DCT ADKUV DCT SOGRI DCT DENUT L610 HEMEL
Aircraft B77W/H-SDE1E2E3FGHIJ2J3J4J5M1RWXY/LB1D1

Departure

Time N/A
Airport King Abdulaziz International Airport (OEJN)

Arrival

Time 2026-05-01 13:12
Airport East Midlands Airport (EGNX)
Time Latitude Longitude Altitude Speed Heading
2026-05-01 07:23 24.43897 37.82198 37896 ft 459 kts 317°
2026-05-01 07:24 24.51797 37.76245 37900 ft 458 kts 317°
2026-05-01 07:24 24.57048 37.72281 37908 ft 458 kts 317°
2026-05-01 07:25 24.62301 37.68312 37926 ft 458 kts 317°
2026-05-01 07:25 24.67553 37.64340 37953 ft 458 kts 317°
2026-05-01 07:26 24.72802 37.60365 37930 ft 458 kts 317°
2026-05-01 07:26 24.78015 37.56413 37925 ft 457 kts 317°
2026-05-01 07:27 24.83255 37.52439 37931 ft 457 kts 317°
2026-05-01 07:27 24.88494 37.48459 37930 ft 456 kts 317°
2026-05-01 07:28 24.93718 37.44487 37940 ft 456 kts 317°
2026-05-01 07:28 24.98930 37.40518 37969 ft 455 kts 317°
2026-05-01 07:29 25.04142 37.36548 37953 ft 456 kts 317°
2026-05-01 07:29 25.09363 37.32565 37954 ft 455 kts 317°
2026-05-01 07:30 25.14542 37.28610 37940 ft 455 kts 317°
2026-05-01 07:30 25.19756 37.24623 37953 ft 455 kts 317°
2026-05-01 07:31 25.24964 37.20638 37948 ft 455 kts 317°
2026-05-01 07:32 25.37973 37.10654 37944 ft 455 kts 317°
2026-05-01 07:33 25.45746 37.04692 37938 ft 455 kts 317°
2026-05-01 07:33 25.52584 36.99451 37938 ft 455 kts 317°
2026-05-01 07:34 25.60382 36.93461 37941 ft 454 kts 317°
2026-05-01 07:35 25.65583 36.89459 37935 ft 455 kts 317°
2026-05-01 07:35 25.70779 36.85458 37941 ft 454 kts 317°
2026-05-01 07:36 25.75969 36.81448 37931 ft 454 kts 316°
2026-05-01 07:36 25.81150 36.77429 37929 ft 454 kts 316°
2026-05-01 07:37 25.88889 36.71417 37927 ft 453 kts 316°
2026-05-01 07:37 25.94061 36.67396 37921 ft 453 kts 316°
2026-05-01 07:38 25.99236 36.63368 37920 ft 454 kts 316°
2026-05-01 07:39 26.06945 36.57359 37920 ft 453 kts 316°
2026-05-01 07:39 26.14696 36.51307 37913 ft 453 kts 316°
2026-05-01 07:40 26.19574 36.46968 37917 ft 442 kts 307°
2026-05-01 07:40 26.23806 36.42083 37918 ft 440 kts 306°
2026-05-01 07:41 26.28038 36.37164 37909 ft 440 kts 306°
2026-05-01 07:42 26.34428 36.29778 37922 ft 440 kts 306°
2026-05-01 07:42 26.38681 36.24870 37924 ft 440 kts 306°
2026-05-01 07:43 26.42937 36.19953 37919 ft 440 kts 306°
2026-05-01 07:43 26.49285 36.12608 37915 ft 440 kts 306°
2026-05-01 07:44 26.57793 36.02743 37918 ft 440 kts 306°
2026-05-01 07:45 26.61965 35.97897 37921 ft 439 kts 306°
2026-05-01 07:45 26.66178 35.92998 37953 ft 439 kts 306°
2026-05-01 07:46 26.70420 35.88058 37932 ft 440 kts 306°
2026-05-01 07:47 26.76785 35.80638 37920 ft 440 kts 306°
2026-05-01 07:47 26.81027 35.75687 37921 ft 441 kts 306°
2026-05-01 07:48 26.87392 35.68248 37926 ft 441 kts 306°
2026-05-01 07:48 26.91641 35.63274 37926 ft 441 kts 306°
2026-05-01 07:49 26.97978 35.55845 37924 ft 441 kts 306°
2026-05-01 07:50 27.02211 35.50874 37928 ft 441 kts 306°
2026-05-01 07:50 27.08576 35.43389 37934 ft 442 kts 306°
2026-05-01 07:51 27.12788 35.38430 37927 ft 442 kts 306°
2026-05-01 07:52 27.19146 35.30932 37926 ft 441 kts 306°
2026-05-01 07:52 27.23371 35.25941 37931 ft 441 kts 306°
2026-05-01 07:53 27.29703 35.18451 37931 ft 440 kts 306°
2026-05-01 07:53 27.33915 35.13462 37933 ft 440 kts 306°
2026-05-01 07:55 27.44432 35.00975 37941 ft 440 kts 306°
2026-05-01 07:56 27.55077 34.88735 37925 ft 442 kts 309°
2026-05-01 07:57 27.61821 34.81670 37918 ft 443 kts 309°
2026-05-01 07:58 27.70814 34.72164 37926 ft 443 kts 309°
2026-05-01 07:59 27.79767 34.62653 37913 ft 444 kts 310°
2026-05-01 08:00 27.93247 34.48293 37913 ft 444 kts 310°
2026-05-01 08:01 28.01932 34.38463 37919 ft 437 kts 303°
2026-05-01 08:02 28.07653 34.30487 37911 ft 436 kts 303°
2026-05-01 08:03 28.13405 34.22488 37965 ft 436 kts 303°
2026-05-01 08:03 28.19152 34.14513 37942 ft 436 kts 304°
2026-05-01 08:04 28.26808 34.03874 37942 ft 435 kts 303°
2026-05-01 08:05 28.32495 33.95945 37944 ft 436 kts 304°
2026-05-01 08:06 28.38252 33.87905 37954 ft 438 kts 304°
2026-05-01 08:07 28.45916 33.77184 37960 ft 438 kts 304°
2026-05-01 08:08 28.51685 33.69092 37949 ft 439 kts 304°
2026-05-01 08:09 28.59335 33.58331 37960 ft 436 kts 304°
2026-05-01 08:09 28.63138 33.52969 37952 ft 434 kts 304°
2026-05-01 08:10 28.70705 33.42305 37963 ft 431 kts 304°
2026-05-01 08:11 28.78210 33.31701 37964 ft 431 kts 304°
2026-05-01 08:12 28.83856 33.23703 37968 ft 432 kts 304°
2026-05-01 08:13 28.89519 33.15664 37987 ft 434 kts 304°
2026-05-01 08:13 28.95200 33.07587 37971 ft 435 kts 304°
2026-05-01 08:14 28.98967 33.02222 37980 ft 435 kts 304°
2026-05-01 08:14 29.02712 32.96882 37981 ft 436 kts 304°
2026-05-01 08:15 29.08395 32.88765 37972 ft 436 kts 304°
2026-05-01 08:16 29.12179 32.83351 37995 ft 435 kts 304°
2026-05-01 08:16 29.15927 32.77980 37973 ft 434 kts 304°
2026-05-01 08:17 29.19692 32.72580 37992 ft 434 kts 304°
2026-05-01 08:17 29.23453 32.67176 37996 ft 433 kts 304°
2026-05-01 08:18 29.27201 32.61786 38004 ft 432 kts 304°
2026-05-01 08:19 29.34641 32.50981 38006 ft 433 kts 304°
2026-05-01 08:19 29.38361 32.45545 38002 ft 434 kts 304°
2026-05-01 08:20 29.42087 32.40099 38001 ft 434 kts 304°
2026-05-01 08:20 29.45184 32.35568 38002 ft 434 kts 304°
2026-05-01 08:21 29.48914 32.30105 37998 ft 435 kts 304°
2026-05-01 08:21 29.52639 32.24642 38003 ft 434 kts 304°
2026-05-01 08:22 29.56362 32.19173 38002 ft 434 kts 304°
2026-05-01 08:22 29.60061 32.13735 38008 ft 433 kts 304°
2026-05-01 08:23 29.63777 32.08263 38000 ft 433 kts 304°
2026-05-01 08:23 29.67486 32.02792 38007 ft 433 kts 304°
2026-05-01 08:24 29.71149 31.97383 38003 ft 433 kts 304°
2026-05-01 08:24 29.74824 31.91949 38007 ft 433 kts 304°
2026-05-01 08:25 29.78550 31.86432 38020 ft 433 kts 304°
2026-05-01 08:25 29.82140 31.80901 38006 ft 433 kts 303°
2026-05-01 08:26 29.85709 31.75318 38012 ft 432 kts 303°
2026-05-01 08:26 29.89287 31.69745 38013 ft 432 kts 303°
2026-05-01 08:27 29.92868 31.64178 38009 ft 432 kts 303°
2026-05-01 08:27 29.96426 31.58666 37993 ft 431 kts 303°
2026-05-01 08:28 30.00005 31.53113 37994 ft 431 kts 303°
2026-05-01 08:28 30.03573 31.47567 37997 ft 431 kts 303°
2026-05-01 08:29 30.07135 31.42022 37995 ft 430 kts 303°
2026-05-01 08:29 30.11029 31.36761 37992 ft 433 kts 313°
2026-05-01 08:30 30.15460 31.32035 38017 ft 433 kts 313°
2026-05-01 08:30 30.19900 31.27318 37994 ft 433 kts 313°
2026-05-01 08:31 30.24320 31.22589 37980 ft 433 kts 313°
2026-05-01 08:31 30.28733 31.17846 37990 ft 432 kts 313°
2026-05-01 08:32 30.33138 31.13101 37988 ft 433 kts 313°
2026-05-01 08:32 30.37515 31.08381 37988 ft 433 kts 313°
2026-05-01 08:33 30.41924 31.03620 37992 ft 433 kts 313°
2026-05-01 08:33 30.46272 30.98920 37992 ft 433 kts 313°
2026-05-01 08:34 30.50688 30.94140 38013 ft 434 kts 313°
2026-05-01 08:34 30.55105 30.89352 38002 ft 434 kts 313°
2026-05-01 08:35 30.59522 30.84558 37994 ft 434 kts 313°
2026-05-01 08:35 30.63906 30.79795 37989 ft 434 kts 313°
2026-05-01 08:36 30.68318 30.74994 37992 ft 434 kts 313°
2026-05-01 08:36 30.72724 30.70194 38000 ft 433 kts 313°
2026-05-01 08:37 30.77125 30.65392 37996 ft 433 kts 313°
2026-05-01 08:37 30.81519 30.60592 37992 ft 433 kts 313°
2026-05-01 08:38 30.85876 30.55826 37998 ft 433 kts 313°
2026-05-01 08:38 30.90262 30.51021 37996 ft 433 kts 313°
2026-05-01 08:39 30.94639 30.46220 37995 ft 432 kts 313°
2026-05-01 08:39 30.99013 30.41415 37997 ft 432 kts 313°
2026-05-01 08:40 31.05553 30.34207 37994 ft 430 kts 311°
2026-05-01 08:40 31.09063 30.28658 38008 ft 423 kts 298°
2026-05-01 08:41 31.11434 30.22405 38002 ft 421 kts 287°
2026-05-01 08:41 31.13167 30.15880 37999 ft 421 kts 287°
2026-05-01 08:42 31.14903 30.09393 38017 ft 421 kts 287°
2026-05-01 08:42 31.16683 30.02875 38003 ft 421 kts 287°
2026-05-01 08:43 31.19123 29.96857 38028 ft 421 kts 306°
2026-05-01 08:43 31.23366 29.92097 38012 ft 430 kts 324°
2026-05-01 08:44 31.28661 29.88765 38009 ft 434 kts 327°
2026-05-01 08:44 31.34042 29.85519 38007 ft 435 kts 327°
2026-05-01 08:45 31.39412 29.82215 38041 ft 437 kts 327°
2026-05-01 08:45 31.44781 29.78861 38015 ft 437 kts 327°
2026-05-01 08:46 31.50144 29.75495 38009 ft 437 kts 327°
2026-05-01 08:46 31.55463 29.72151 38024 ft 436 kts 327°
2026-05-01 08:47 31.60728 29.68838 38012 ft 435 kts 327°
2026-05-01 08:47 31.66058 29.65481 38011 ft 433 kts 326°
2026-05-01 08:48 31.71367 29.62132 38012 ft 432 kts 326°
2026-05-01 08:48 31.76661 29.58788 38021 ft 431 kts 326°
2026-05-01 08:49 31.81942 29.55448 38016 ft 431 kts 326°
2026-05-01 08:49 31.87220 29.52105 38032 ft 431 kts 326°
2026-05-01 08:50 31.92462 29.48781 38021 ft 430 kts 326°
2026-05-01 08:50 31.97726 29.45438 38020 ft 429 kts 326°
2026-05-01 08:51 32.02985 29.42092 38018 ft 429 kts 326°
2026-05-01 08:51 32.08233 29.38737 38019 ft 429 kts 326°
2026-05-01 08:52 32.13476 29.35381 38027 ft 429 kts 326°
2026-05-01 08:52 32.18693 29.32038 38022 ft 429 kts 326°
2026-05-01 08:53 32.23947 29.28670 38020 ft 429 kts 326°
2026-05-01 08:53 32.29194 29.25310 38020 ft 429 kts 326°
2026-05-01 08:54 32.34441 29.21946 38007 ft 429 kts 326°
2026-05-01 08:54 32.39680 29.18580 38021 ft 428 kts 326°
2026-05-01 08:55 32.44910 29.15216 38024 ft 428 kts 326°
2026-05-01 08:55 32.50117 29.11862 38024 ft 427 kts 326°
2026-05-01 08:56 32.55336 29.08495 38008 ft 427 kts 326°
2026-05-01 08:56 32.60553 29.05125 38009 ft 427 kts 326°
2026-05-01 08:57 32.65762 29.01756 38025 ft 426 kts 326°
2026-05-01 08:57 32.70898 28.98430 38022 ft 427 kts 326°
2026-05-01 08:58 32.76114 28.95047 38032 ft 427 kts 326°
2026-05-01 08:58 32.81295 28.91682 38019 ft 426 kts 326°
2026-05-01 08:59 32.86492 28.88304 38017 ft 426 kts 326°
2026-05-01 08:59 32.91686 28.84921 38019 ft 425 kts 326°
2026-05-01 09:00 32.96864 28.81546 38050 ft 424 kts 326°
2026-05-01 09:00 33.02037 28.78168 38028 ft 424 kts 326°
2026-05-01 09:01 33.07209 28.74786 38019 ft 424 kts 326°
2026-05-01 09:01 33.12370 28.71407 38018 ft 423 kts 326°
2026-05-01 09:02 33.17538 28.68020 38023 ft 423 kts 326°
2026-05-01 09:02 33.22701 28.64632 38032 ft 423 kts 325°
2026-05-01 09:03 33.27857 28.61241 38023 ft 423 kts 325°
2026-05-01 09:03 33.32983 28.57867 38017 ft 423 kts 325°
2026-05-01 09:04 33.38132 28.54474 38018 ft 422 kts 325°
2026-05-01 09:04 33.43272 28.51081 38019 ft 422 kts 325°
2026-05-01 09:05 33.48410 28.47685 38019 ft 421 kts 325°
2026-05-01 09:05 33.53536 28.44293 38033 ft 421 kts 325°
2026-05-01 09:06 33.58643 28.40907 38014 ft 421 kts 325°
2026-05-01 09:06 33.63774 28.37502 38024 ft 421 kts 325°
2026-05-01 09:07 33.68907 28.34091 38015 ft 421 kts 325°
2026-05-01 09:07 33.74033 28.30679 38017 ft 421 kts 325°
2026-05-01 09:08 33.78300 28.27836 38016 ft 421 kts 325°
2026-05-01 09:08 33.83419 28.24408 38020 ft 421 kts 324°
2026-05-01 09:09 33.88540 28.20949 38017 ft 421 kts 324°
2026-05-01 09:09 33.93618 28.17513 38017 ft 421 kts 324°
2026-05-01 09:10 33.98729 28.14052 38015 ft 421 kts 324°
2026-05-01 09:10 34.03825 28.10598 38013 ft 421 kts 324°
2026-05-01 09:11 34.08935 28.07129 38041 ft 421 kts 324°
2026-05-01 09:11 34.14050 28.03652 38007 ft 421 kts 324°
2026-05-01 09:12 34.19121 28.00201 38013 ft 421 kts 324°
2026-05-01 09:12 34.24152 27.96771 38009 ft 421 kts 324°
2026-05-01 09:13 34.29252 27.93290 38009 ft 421 kts 324°
2026-05-01 09:13 34.34354 27.89803 38008 ft 420 kts 324°
2026-05-01 09:14 34.39451 27.86314 38017 ft 421 kts 324°
2026-05-01 09:14 34.44550 27.82818 38018 ft 421 kts 324°
2026-05-01 09:15 34.49647 27.79319 38010 ft 421 kts 324°
2026-05-01 09:15 34.54744 27.75815 38009 ft 420 kts 324°
2026-05-01 09:16 34.59828 27.72307 38010 ft 420 kts 324°
2026-05-01 09:17 34.67416 27.67055 38016 ft 420 kts 324°
2026-05-01 09:17 34.75037 27.61770 38009 ft 420 kts 324°
2026-05-01 09:18 34.82652 27.56479 38010 ft 420 kts 323°
2026-05-01 09:19 34.90269 27.51175 38011 ft 420 kts 323°
2026-05-01 09:20 34.97883 27.45862 38009 ft 420 kts 323°
2026-05-01 09:21 35.07981 27.38797 38012 ft 419 kts 323°
2026-05-01 09:21 35.15566 27.33477 38019 ft 418 kts 323°
2026-05-01 09:22 35.25650 27.26386 38007 ft 418 kts 323°
2026-05-01 09:23 35.33208 27.21057 38012 ft 418 kts 323°
2026-05-01 09:24 35.40728 27.15744 38009 ft 417 kts 323°
2026-05-01 09:25 35.50552 27.08212 37995 ft 416 kts 320°
2026-05-01 09:26 35.57835 27.02417 38007 ft 415 kts 320°
2026-05-01 09:26 35.65053 26.96717 38018 ft 415 kts 321°
2026-05-01 09:27 35.72342 26.90955 38028 ft 414 kts 320°
2026-05-01 09:28 35.77162 26.87136 38034 ft 415 kts 320°
2026-05-01 09:28 35.82019 26.83283 38034 ft 414 kts 320°
2026-05-01 09:29 35.89274 26.77517 38032 ft 413 kts 320°
2026-05-01 09:30 35.96513 26.71742 38035 ft 412 kts 320°
2026-05-01 09:30 36.03730 26.65960 38039 ft 413 kts 320°
2026-05-01 09:31 36.08546 26.62096 38039 ft 413 kts 320°
2026-05-01 09:32 36.15772 26.56287 38040 ft 413 kts 320°
2026-05-01 09:32 36.22991 26.50471 38038 ft 412 kts 320°
2026-05-01 09:33 36.27774 26.46611 38044 ft 412 kts 320°
2026-05-01 09:34 36.34990 26.40775 38052 ft 413 kts 319°
2026-05-01 09:34 36.42216 26.34919 38033 ft 413 kts 319°
2026-05-01 09:35 36.49430 26.29058 38048 ft 413 kts 319°
2026-05-01 09:36 36.54236 26.25146 38050 ft 412 kts 319°
2026-05-01 09:36 36.58672 26.20754 38047 ft 404 kts 309°
2026-05-01 09:37 36.62658 26.15898 38041 ft 404 kts 309°
2026-05-01 09:37 36.68701 26.08545 38049 ft 404 kts 309°
2026-05-01 09:38 36.74750 26.01195 38054 ft 404 kts 309°
2026-05-01 09:39 36.80699 25.93955 38063 ft 404 kts 309°
2026-05-01 09:39 36.84721 25.89049 38065 ft 405 kts 309°
2026-05-01 09:40 36.90774 25.81654 38070 ft 406 kts 309°
2026-05-01 09:41 36.94812 25.76711 38060 ft 407 kts 309°
2026-05-01 09:41 37.00872 25.69278 38069 ft 407 kts 309°
2026-05-01 09:42 37.04908 25.64317 38071 ft 407 kts 309°
2026-05-01 09:43 37.12955 25.54403 38079 ft 406 kts 309°
2026-05-01 09:43 37.16986 25.49425 38109 ft 407 kts 309°
2026-05-01 09:44 37.23053 25.41925 38078 ft 408 kts 309°
2026-05-01 09:45 37.27286 25.37113 38104 ft 414 kts 315°
2026-05-01 09:45 37.34700 25.31272 38088 ft 423 kts 323°
2026-05-01 09:46 37.39850 25.27734 38095 ft 424 kts 323°
2026-05-01 09:46 37.45031 25.24163 38136 ft 425 kts 323°
2026-05-01 09:47 37.50212 25.20561 38112 ft 425 kts 323°
2026-05-01 09:47 37.55392 25.16943 38103 ft 426 kts 323°
2026-05-01 09:48 37.60579 25.13311 38101 ft 426 kts 323°
2026-05-01 09:48 37.65757 25.09681 38112 ft 425 kts 323°
2026-05-01 09:49 37.70942 25.06038 38154 ft 426 kts 323°
2026-05-01 09:49 37.76098 25.02408 38126 ft 427 kts 323°
2026-05-01 09:50 37.81224 24.98796 38131 ft 427 kts 323°
2026-05-01 09:50 37.86425 24.95126 38125 ft 428 kts 323°
2026-05-01 09:51 37.91623 24.91452 38130 ft 428 kts 323°
2026-05-01 09:51 37.96818 24.87774 38127 ft 427 kts 323°
2026-05-01 09:52 38.02003 24.84097 38136 ft 427 kts 323°
2026-05-01 09:52 38.07163 24.80431 38136 ft 427 kts 323°
2026-05-01 09:53 38.12348 24.76741 38133 ft 427 kts 323°
2026-05-01 09:53 38.17531 24.73047 38141 ft 426 kts 323°
2026-05-01 09:54 38.21833 24.69976 38178 ft 427 kts 323°
2026-05-01 09:54 38.27021 24.66265 38156 ft 429 kts 323°
2026-05-01 09:55 38.33081 24.61924 38165 ft 430 kts 323°
2026-05-01 09:55 38.37464 24.58780 38166 ft 432 kts 323°
2026-05-01 09:56 38.42667 24.55042 38173 ft 432 kts 323°
2026-05-01 09:56 38.47916 24.51265 38181 ft 433 kts 323°
2026-05-01 09:57 38.53180 24.47470 38175 ft 434 kts 323°
2026-05-01 09:57 38.58442 24.43671 38172 ft 434 kts 323°
2026-05-01 09:58 38.63707 24.39863 38176 ft 434 kts 323°
2026-05-01 09:58 38.68965 24.36053 38191 ft 434 kts 323°
2026-05-01 09:59 38.74189 24.32262 38200 ft 434 kts 323°
2026-05-01 09:59 38.79448 24.28438 38198 ft 434 kts 323°
2026-05-01 10:00 38.84702 24.24611 38196 ft 434 kts 323°
2026-05-01 10:00 38.89951 24.20782 38204 ft 434 kts 323°
2026-05-01 10:01 38.95193 24.16952 38201 ft 433 kts 323°
2026-05-01 10:01 39.00436 24.13112 38196 ft 434 kts 323°
2026-05-01 10:02 39.05655 24.09285 38201 ft 435 kts 323°
2026-05-01 10:02 39.10912 24.05422 38205 ft 435 kts 323°
2026-05-01 10:03 39.16184 24.01543 38222 ft 436 kts 323°
2026-05-01 10:03 39.21378 23.97714 38233 ft 437 kts 323°
2026-05-01 10:04 39.26665 23.93808 38224 ft 439 kts 324°
2026-05-01 10:04 39.31979 23.89878 38215 ft 440 kts 324°
2026-05-01 10:05 39.37297 23.85938 38223 ft 440 kts 324°
2026-05-01 10:05 39.42586 23.82012 38226 ft 441 kts 324°
2026-05-01 10:06 39.47898 23.78062 38256 ft 440 kts 324°
2026-05-01 10:06 39.53220 23.74097 38253 ft 441 kts 324°
2026-05-01 10:07 39.58542 23.70125 38236 ft 441 kts 324°
2026-05-01 10:07 39.63860 23.66150 38233 ft 441 kts 324°
2026-05-01 10:08 39.71835 23.60173 38236 ft 441 kts 324°
2026-05-01 10:09 39.77155 23.56177 38244 ft 441 kts 324°
2026-05-01 10:09 39.82441 23.52201 38241 ft 441 kts 324°
2026-05-01 10:10 39.87751 23.48198 38244 ft 441 kts 324°
2026-05-01 10:10 39.95718 23.42179 38249 ft 441 kts 324°
2026-05-01 10:11 40.01019 23.38165 38242 ft 442 kts 324°
2026-05-01 10:11 40.06329 23.34138 38239 ft 442 kts 324°
2026-05-01 10:12 40.11647 23.30097 38245 ft 442 kts 324°
2026-05-01 10:13 40.19568 23.24064 38244 ft 441 kts 324°
2026-05-01 10:13 40.24870 23.20015 38250 ft 442 kts 325°
2026-05-01 10:14 40.32850 23.13909 38243 ft 444 kts 325°
2026-05-01 10:14 40.38184 23.09818 38222 ft 444 kts 325°
2026-05-01 10:15 40.43528 23.05713 38230 ft 445 kts 325°
2026-05-01 10:15 40.48880 23.01592 38239 ft 446 kts 325°
2026-05-01 10:16 40.54142 22.97534 38241 ft 447 kts 325°
2026-05-01 10:17 40.62160 22.91337 38238 ft 448 kts 325°
2026-05-01 10:17 40.70230 22.85081 38263 ft 448 kts 325°
2026-05-01 10:18 40.78309 22.78800 38226 ft 449 kts 325°
2026-05-01 10:19 40.83665 22.74627 38234 ft 449 kts 325°
2026-05-01 10:19 40.89056 22.70418 38234 ft 450 kts 325°
2026-05-01 10:20 40.97143 22.64087 38231 ft 451 kts 326°
2026-05-01 10:20 41.02530 22.59861 38224 ft 451 kts 326°
2026-05-01 10:21 41.10626 22.53495 38235 ft 451 kts 326°
2026-05-01 10:22 41.18145 22.46232 38249 ft 447 kts 318°
2026-05-01 10:23 41.25389 22.38399 38233 ft 448 kts 318°
2026-05-01 10:23 41.32668 22.30573 38236 ft 449 kts 318°
2026-05-01 10:24 41.42411 22.20099 38228 ft 450 kts 318°
2026-05-01 10:25 41.52153 22.09583 38236 ft 451 kts 319°
2026-05-01 10:26 41.57024 22.04309 38234 ft 451 kts 318°
2026-05-01 10:27 41.66668 21.93835 38230 ft 450 kts 318°
2026-05-01 10:28 41.73967 21.85879 38243 ft 451 kts 319°
2026-05-01 10:28 41.81259 21.77908 38253 ft 451 kts 319°
2026-05-01 10:29 41.88523 21.69943 38269 ft 451 kts 319°
2026-05-01 10:30 41.98246 21.59242 38276 ft 452 kts 319°
2026-05-01 10:31 42.07957 21.48512 38246 ft 453 kts 319°
2026-05-01 10:32 42.15228 21.40370 38258 ft 452 kts 315°
2026-05-01 10:33 42.23541 21.27685 38250 ft 452 kts 309°
2026-05-01 10:34 42.29592 21.17997 38260 ft 452 kts 309°
2026-05-01 10:34 42.33663 21.11506 38283 ft 452 kts 309°
2026-05-01 10:35 42.39766 21.01762 38272 ft 452 kts 309°
2026-05-01 10:35 42.43779 20.95334 38274 ft 453 kts 309°
2026-05-01 10:36 42.49875 20.85542 38280 ft 453 kts 309°
2026-05-01 10:37 42.53941 20.78993 38270 ft 454 kts 309°
2026-05-01 10:37 42.60006 20.69197 38284 ft 455 kts 309°
2026-05-01 10:38 42.64083 20.62595 38259 ft 455 kts 309°
2026-05-01 10:38 42.68150 20.55993 38275 ft 456 kts 309°
2026-05-01 10:39 42.72219 20.49372 38275 ft 456 kts 309°
2026-05-01 10:39 42.76256 20.42787 38290 ft 456 kts 309°
2026-05-01 10:40 42.80320 20.36149 38288 ft 456 kts 309°
2026-05-01 10:40 42.84581 20.29741 38283 ft 457 kts 317°
2026-05-01 10:41 42.89482 20.24175 38266 ft 459 kts 320°
2026-05-01 10:42 42.96094 20.16879 38269 ft 460 kts 320°
2026-05-01 10:42 43.01042 20.11355 38257 ft 460 kts 320°
2026-05-01 10:43 43.05988 20.05796 38280 ft 460 kts 320°
2026-05-01 10:43 43.10921 20.00232 38283 ft 460 kts 320°
2026-05-01 10:44 43.15793 19.94727 38278 ft 459 kts 320°
2026-05-01 10:44 43.20713 19.89155 38285 ft 459 kts 320°
2026-05-01 10:45 43.25625 19.83581 38278 ft 458 kts 321°
2026-05-01 10:45 43.30501 19.78037 38280 ft 458 kts 321°
2026-05-01 10:46 43.35405 19.72448 38282 ft 458 kts 321°
2026-05-01 10:46 43.40306 19.66851 38288 ft 458 kts 320°
2026-05-01 10:47 43.45215 19.61232 38295 ft 458 kts 320°
2026-05-01 10:47 43.50085 19.55646 38291 ft 458 kts 321°
2026-05-01 10:48 43.54991 19.50008 38300 ft 459 kts 321°
2026-05-01 10:48 43.59906 19.44345 38299 ft 460 kts 321°
2026-05-01 10:49 43.64830 19.38659 38297 ft 461 kts 321°
2026-05-01 10:49 43.69749 19.32966 38297 ft 461 kts 321°
2026-05-01 10:50 43.74635 19.27299 38302 ft 461 kts 321°
2026-05-01 10:50 43.79578 19.21640 38309 ft 460 kts 323°
2026-05-01 10:51 43.84668 19.16273 38319 ft 460 kts 324°
2026-05-01 10:51 43.89794 19.10944 38309 ft 460 kts 324°
2026-05-01 10:52 43.94898 19.05573 38316 ft 460 kts 324°
2026-05-01 10:52 43.99990 19.00162 38325 ft 461 kts 324°
2026-05-01 10:53 44.04958 18.94861 38326 ft 461 kts 324°
2026-05-01 10:53 44.10049 18.89418 38321 ft 462 kts 324°
2026-05-01 10:54 44.15141 18.83962 38313 ft 461 kts 324°
2026-05-01 10:54 44.20221 18.78508 38325 ft 461 kts 324°
2026-05-01 10:55 44.25302 18.73042 38330 ft 461 kts 324°
2026-05-01 10:55 44.30350 18.67599 38347 ft 461 kts 324°
2026-05-01 10:56 44.35431 18.62107 38350 ft 461 kts 324°
2026-05-01 10:56 44.40504 18.56612 38348 ft 461 kts 324°
2026-05-01 10:57 44.45569 18.51112 38351 ft 461 kts 324°
2026-05-01 10:57 44.50637 18.45598 38350 ft 461 kts 324°
2026-05-01 10:58 44.55668 18.40111 38348 ft 461 kts 324°
2026-05-01 10:58 44.60726 18.34583 38346 ft 461 kts 324°
2026-05-01 10:59 44.65785 18.29040 38359 ft 461 kts 324°
2026-05-01 10:59 44.70841 18.23490 38370 ft 461 kts 324°
2026-05-01 11:00 44.75905 18.17916 38366 ft 462 kts 324°
2026-05-01 11:00 44.80960 18.12340 38349 ft 462 kts 325°
2026-05-01 11:01 44.85986 18.06782 38367 ft 462 kts 325°
2026-05-01 11:01 44.91045 18.01176 38368 ft 462 kts 325°
2026-05-01 11:02 44.96023 17.95647 38366 ft 462 kts 325°
2026-05-01 11:02 45.01052 17.90049 38368 ft 462 kts 325°
2026-05-01 11:03 45.06089 17.84412 38380 ft 462 kts 325°
2026-05-01 11:03 45.11072 17.78663 38374 ft 462 kts 324°
2026-05-01 11:04 45.16037 17.72878 38375 ft 462 kts 324°
2026-05-01 11:04 45.20967 17.67134 38371 ft 461 kts 324°
2026-05-01 11:05 45.25929 17.61352 38351 ft 461 kts 325°
2026-05-01 11:05 45.30876 17.55580 38376 ft 460 kts 325°
2026-05-01 11:06 45.35819 17.49802 38372 ft 460 kts 325°
2026-05-01 11:06 45.40768 17.44001 38369 ft 460 kts 325°
2026-05-01 11:07 45.48170 17.35296 38347 ft 460 kts 325°
2026-05-01 11:07 45.53105 17.29478 38372 ft 460 kts 325°
2026-05-01 11:08 45.58004 17.23686 38384 ft 460 kts 325°
2026-05-01 11:09 45.65397 17.14922 38380 ft 460 kts 325°
2026-05-01 11:09 45.70328 17.09060 38369 ft 461 kts 325°
2026-05-01 11:10 45.77733 17.00230 38373 ft 462 kts 325°
2026-05-01 11:10 45.82606 16.94401 38376 ft 463 kts 325°
2026-05-01 11:11 45.87521 16.88509 38378 ft 464 kts 325°
2026-05-01 11:11 45.92475 16.82554 38373 ft 464 kts 325°
2026-05-01 11:12 45.97431 16.76583 38373 ft 463 kts 326°
2026-05-01 11:12 46.02354 16.70637 38374 ft 463 kts 326°
2026-05-01 11:13 46.07289 16.64665 38371 ft 462 kts 326°
2026-05-01 11:13 46.12179 16.58730 38373 ft 462 kts 326°
2026-05-01 11:14 46.17095 16.52749 38343 ft 461 kts 326°
2026-05-01 11:14 46.21983 16.46787 38367 ft 460 kts 326°
2026-05-01 11:15 46.26861 16.40827 38377 ft 459 kts 326°
2026-05-01 11:15 46.31737 16.34851 38379 ft 458 kts 326°
2026-05-01 11:16 46.36565 16.28922 38376 ft 458 kts 326°
2026-05-01 11:16 46.41440 16.23014 38379 ft 456 kts 327°
2026-05-01 11:17 46.46355 16.17196 38378 ft 455 kts 327°
2026-05-01 11:17 46.51262 16.11381 38383 ft 456 kts 327°
2026-05-01 11:18 46.56162 16.05539 38374 ft 456 kts 327°
2026-05-01 11:18 46.60963 15.99790 38381 ft 456 kts 327°
2026-05-01 11:19 46.65856 15.93914 38381 ft 456 kts 327°
2026-05-01 11:19 46.70756 15.88017 38373 ft 457 kts 327°
2026-05-01 11:20 46.75652 15.82109 38378 ft 457 kts 326°
2026-05-01 11:20 46.80555 15.76179 38380 ft 458 kts 326°
2026-05-01 11:21 46.85452 15.70242 38378 ft 458 kts 326°
2026-05-01 11:21 46.90330 15.64313 38374 ft 458 kts 326°
2026-05-01 11:22 46.95229 15.58345 38370 ft 459 kts 326°
2026-05-01 11:22 47.00110 15.52384 38373 ft 459 kts 326°
2026-05-01 11:23 47.05019 15.46372 38375 ft 459 kts 326°
2026-05-01 11:23 47.09927 15.40347 38375 ft 460 kts 326°
2026-05-01 11:24 47.14830 15.34314 38384 ft 459 kts 326°
2026-05-01 11:25 47.22173 15.25246 38394 ft 458 kts 326°
2026-05-01 11:25 47.29467 15.16212 38383 ft 459 kts 326°
2026-05-01 11:26 47.36790 15.07109 38358 ft 459 kts 325°
2026-05-01 11:27 47.41676 15.01007 38384 ft 461 kts 325°
2026-05-01 11:27 47.46509 14.94967 38348 ft 462 kts 325°
2026-05-01 11:28 47.51401 14.88841 38423 ft 460 kts 325°
2026-05-01 11:28 47.56304 14.82677 38394 ft 463 kts 325°
2026-05-01 11:29 47.63630 14.73431 38427 ft 461 kts 325°
2026-05-01 11:30 47.70155 14.65170 38397 ft 462 kts 325°
2026-05-01 11:30 47.75047 14.58966 38363 ft 462 kts 325°
2026-05-01 11:31 47.79923 14.52762 38383 ft 462 kts 325°
2026-05-01 11:31 47.84799 14.46538 38357 ft 462 kts 324°
2026-05-01 11:32 47.89673 14.40296 38405 ft 462 kts 324°
2026-05-01 11:32 47.94547 14.34050 38416 ft 461 kts 324°
2026-05-01 11:33 47.99396 14.27823 38407 ft 463 kts 324°
2026-05-01 11:33 48.04265 14.21546 38409 ft 464 kts 324°
2026-05-01 11:34 48.09154 14.15226 38384 ft 464 kts 324°
2026-05-01 11:34 48.14034 14.08901 38398 ft 464 kts 323°
2026-05-01 11:35 48.18921 14.02551 38403 ft 465 kts 323°
2026-05-01 11:35 48.23734 13.96280 38406 ft 465 kts 323°
2026-05-01 11:36 48.28621 13.89899 38400 ft 466 kts 323°
2026-05-01 11:36 48.33506 13.83502 38405 ft 465 kts 323°
2026-05-01 11:37 48.38345 13.77148 38403 ft 465 kts 323°
2026-05-01 11:37 48.43224 13.70724 38402 ft 465 kts 323°
2026-05-01 11:38 48.48093 13.64297 38404 ft 465 kts 323°
2026-05-01 11:38 48.52962 13.57855 38398 ft 465 kts 323°
2026-05-01 11:39 48.57577 13.50962 38391 ft 470 kts 312°
2026-05-01 11:39 48.61195 13.42668 38401 ft 477 kts 301°
2026-05-01 11:40 48.64134 13.33677 38402 ft 478 kts 300°
2026-05-01 11:40 48.67019 13.24615 38398 ft 478 kts 300°
2026-05-01 11:41 48.69910 13.15628 38402 ft 477 kts 300°
2026-05-01 11:41 48.72831 13.06611 38395 ft 477 kts 300°
2026-05-01 11:42 48.75711 12.97715 38402 ft 477 kts 300°
2026-05-01 11:42 48.78626 12.88675 38401 ft 477 kts 300°
2026-05-01 11:43 48.81526 12.79644 38387 ft 477 kts 300°
2026-05-01 11:43 48.84425 12.70586 38402 ft 476 kts 299°
2026-05-01 11:44 48.88756 12.56984 38400 ft 477 kts 299°
2026-05-01 11:44 48.91636 12.47902 38398 ft 477 kts 299°
2026-05-01 11:45 48.94494 12.38852 38397 ft 477 kts 299°
2026-05-01 11:45 48.97354 12.29766 38394 ft 476 kts 299°
2026-05-01 11:46 49.00208 12.20669 38398 ft 475 kts 299°
2026-05-01 11:46 49.03051 12.11572 38398 ft 475 kts 298°
2026-05-01 11:47 49.05882 12.02475 38396 ft 475 kts 298°
2026-05-01 11:47 49.08652 11.93549 38380 ft 474 kts 298°
2026-05-01 11:48 49.11464 11.84449 38394 ft 473 kts 298°
2026-05-01 11:48 49.14264 11.75355 38393 ft 473 kts 298°
2026-05-01 11:49 49.17067 11.66220 38390 ft 473 kts 298°
2026-05-01 11:49 49.19848 11.57120 38397 ft 472 kts 298°
2026-05-01 11:50 49.22621 11.48017 38396 ft 471 kts 297°
2026-05-01 11:50 49.25364 11.38976 38390 ft 471 kts 297°
2026-05-01 11:51 49.28116 11.29874 38379 ft 471 kts 297°
2026-05-01 11:51 49.30875 11.20710 38367 ft 470 kts 297°
2026-05-01 11:52 49.33591 11.11657 38367 ft 470 kts 297°
2026-05-01 11:52 49.36313 11.02555 38371 ft 470 kts 297°
2026-05-01 11:53 49.38988 10.93576 38375 ft 469 kts 297°
2026-05-01 11:53 49.41848 10.84569 38382 ft 469 kts 299°
2026-05-01 11:54 49.44796 10.75628 38383 ft 469 kts 299°
2026-05-01 11:54 49.47721 10.66676 38390 ft 469 kts 299°
2026-05-01 11:55 49.50622 10.57687 38383 ft 469 kts 298°
2026-05-01 11:55 49.53506 10.48691 38377 ft 469 kts 298°
2026-05-01 11:56 49.56369 10.39723 38375 ft 469 kts 298°
2026-05-01 11:56 49.59240 10.30703 38378 ft 468 kts 298°
2026-05-01 11:57 49.62105 10.21675 38374 ft 468 kts 298°
2026-05-01 11:57 49.64954 10.12660 38373 ft 468 kts 298°
2026-05-01 11:58 49.67802 10.03619 38363 ft 467 kts 297°
2026-05-01 11:59 49.71987 9.90270 38354 ft 467 kts 297°
2026-05-01 11:59 49.74807 9.81235 38367 ft 466 kts 298°
2026-05-01 12:00 49.79001 9.67730 38358 ft 466 kts 297°
2026-05-01 12:01 49.83197 9.54156 38345 ft 466 kts 297°
2026-05-01 12:01 49.85967 9.45149 38348 ft 466 kts 296°
2026-05-01 12:02 49.88749 9.36067 38345 ft 466 kts 296°
2026-05-01 12:02 49.91525 9.26974 38354 ft 466 kts 297°
2026-05-01 12:03 49.94292 9.17877 38337 ft 466 kts 297°
2026-05-01 12:03 49.97051 9.08773 38343 ft 466 kts 296°
2026-05-01 12:04 49.99766 8.99778 38341 ft 466 kts 296°
2026-05-01 12:04 50.02497 8.90696 38358 ft 465 kts 296°
2026-05-01 12:05 50.05229 8.81582 38356 ft 465 kts 295°
2026-05-01 12:05 50.08736 8.67479 38342 ft 466 kts 290°
2026-05-01 12:06 50.10915 8.58059 38344 ft 466 kts 290°
2026-05-01 12:06 50.13122 8.48568 38353 ft 465 kts 291°
2026-05-01 12:07 50.15336 8.39074 38349 ft 465 kts 291°
2026-05-01 12:07 50.17545 8.29588 38333 ft 465 kts 290°
2026-05-01 12:08 50.19749 8.20082 38342 ft 465 kts 290°
2026-05-01 12:08 50.21941 8.10583 38350 ft 465 kts 290°
2026-05-01 12:09 50.24124 8.01081 38346 ft 464 kts 290°
2026-05-01 12:09 50.26265 7.91718 38338 ft 465 kts 290°
2026-05-01 12:10 50.29499 7.77503 38343 ft 465 kts 289°
2026-05-01 12:11 50.32726 7.63214 38328 ft 464 kts 289°
2026-05-01 12:11 50.34866 7.53682 38326 ft 463 kts 289°
2026-05-01 12:12 50.36995 7.44159 38320 ft 463 kts 289°
2026-05-01 12:12 50.39115 7.34637 38325 ft 463 kts 289°
2026-05-01 12:13 50.41229 7.25097 38323 ft 463 kts 289°
2026-05-01 12:13 50.43334 7.15553 38318 ft 463 kts 289°
2026-05-01 12:14 50.45430 7.06006 38323 ft 463 kts 289°
2026-05-01 12:14 50.47479 6.96627 38310 ft 464 kts 288°
2026-05-01 12:15 50.49570 6.87024 38300 ft 464 kts 288°
2026-05-01 12:15 50.51236 6.79024 38297 ft 463 kts 285°
2026-05-01 12:16 50.52972 6.69276 38285 ft 463 kts 284°
2026-05-01 12:16 50.54653 6.59481 38275 ft 463 kts 284°
2026-05-01 12:17 50.56340 6.49708 38263 ft 463 kts 285°
2026-05-01 12:17 50.58034 6.39934 38267 ft 464 kts 285°
2026-05-01 12:18 50.59732 6.30113 38270 ft 465 kts 284°
2026-05-01 12:18 50.61423 6.20278 38268 ft 466 kts 284°
2026-05-01 12:19 50.63104 6.10436 38265 ft 466 kts 284°
2026-05-01 12:19 50.64770 6.00625 38262 ft 466 kts 284°
2026-05-01 12:20 50.66417 5.90879 38269 ft 466 kts 283°
2026-05-01 12:20 50.68079 5.80978 38266 ft 467 kts 283°
2026-05-01 12:21 50.69733 5.71066 38268 ft 468 kts 283°
2026-05-01 12:21 50.71382 5.61131 38266 ft 468 kts 283°
2026-05-01 12:22 50.73014 5.51248 38259 ft 469 kts 283°
2026-05-01 12:22 50.74649 5.41276 38270 ft 469 kts 283°
2026-05-01 12:23 50.76277 5.31297 38267 ft 470 kts 283°
2026-05-01 12:23 50.77900 5.21286 38262 ft 470 kts 283°
2026-05-01 12:24 50.79516 5.11271 38256 ft 471 kts 283°
2026-05-01 12:24 50.81519 5.01419 38249 ft 473 kts 292°
2026-05-01 12:25 50.85898 4.87604 38261 ft 475 kts 296°
2026-05-01 12:26 50.88897 4.78292 38259 ft 475 kts 295°
2026-05-01 12:26 50.93341 4.64224 38259 ft 476 kts 295°
2026-05-01 12:27 50.97757 4.50094 38268 ft 477 kts 295°
2026-05-01 12:28 51.02145 4.35983 38266 ft 478 kts 295°
2026-05-01 12:29 51.06540 4.21772 38263 ft 478 kts 295°
2026-05-01 12:29 51.10925 4.07509 38248 ft 478 kts 294°
2026-05-01 12:30 51.15229 3.93425 38233 ft 477 kts 294°
2026-05-01 12:31 51.18129 3.83891 38231 ft 477 kts 294°
2026-05-01 12:31 51.21021 3.74352 38217 ft 478 kts 294°
2026-05-01 12:32 51.23631 3.64689 38228 ft 476 kts 286°
2026-05-01 12:32 51.25802 3.49233 38223 ft 476 kts 279°
2026-05-01 12:33 51.27131 3.38867 38221 ft 477 kts 279°
2026-05-01 12:33 51.28489 3.28483 38222 ft 478 kts 279°
2026-05-01 12:34 51.29834 3.18090 38222 ft 481 kts 279°
2026-05-01 12:34 51.31183 3.07578 38216 ft 484 kts 279°
2026-05-01 12:35 51.32502 2.97224 38210 ft 483 kts 279°
2026-05-01 12:35 51.33829 2.86732 38214 ft 480 kts 279°
2026-05-01 12:36 51.35132 2.76359 38213 ft 478 kts 278°
2026-05-01 12:36 51.36275 2.67120 38212 ft 476 kts 278°
2026-05-01 12:37 51.37532 2.56800 38214 ft 474 kts 278°
2026-05-01 12:37 51.38786 2.46437 38209 ft 474 kts 278°
2026-05-01 12:38 51.40025 2.36144 38222 ft 474 kts 278°
2026-05-01 12:38 51.41266 2.25755 38212 ft 475 kts 278°
2026-05-01 12:39 51.42531 2.15365 38211 ft 476 kts 278°
2026-05-01 12:39 51.43804 2.04949 38207 ft 476 kts 278°
2026-05-01 12:40 51.45039 1.94681 38214 ft 477 kts 278°
2026-05-01 12:40 51.46274 1.84224 38218 ft 478 kts 277°
2026-05-01 12:41 51.47475 1.73737 38205 ft 478 kts 277°
2026-05-01 12:41 51.48669 1.63241 38212 ft 478 kts 277°
2026-05-01 12:42 51.49850 1.52816 38203 ft 478 kts 277°
2026-05-01 12:42 51.51030 1.42325 38214 ft 477 kts 277°
2026-05-01 12:43 51.52202 1.31813 38193 ft 477 kts 277°
2026-05-01 12:43 51.53363 1.21334 38191 ft 477 kts 277°
2026-05-01 12:44 51.54513 1.10854 38185 ft 476 kts 277°
2026-05-01 12:45 51.56777 0.90031 38183 ft 476 kts 277°
2026-05-01 12:45 51.57895 0.79549 38188 ft 476 kts 277°
2026-05-01 12:46 51.59008 0.69040 38186 ft 476 kts 277°
2026-05-01 12:46 51.60142 0.58601 38190 ft 477 kts 278°
2026-05-01 12:47 51.61302 0.48128 37894 ft 465 kts 276°
2026-05-01 12:47 51.61809 0.43092 37073 ft 450 kts 276°
2026-05-01 12:47 51.62299 0.38157 35967 ft 443 kts 275°
2026-05-01 12:48 51.62783 0.33292 34759 ft 439 kts 275°
2026-05-01 12:48 51.63267 0.28473 33520 ft 435 kts 275°
2026-05-01 12:48 51.63750 0.23686 32274 ft 430 kts 275°
2026-05-01 12:48 51.64250 0.18951 31148 ft 425 kts 277°
2026-05-01 12:49 51.64992 0.14364 30072 ft 422 kts 283°
2026-05-01 12:49 51.66019 0.09926 29011 ft 424 kts 290°
2026-05-01 12:49 51.67243 0.05627 28502 ft 419 kts 290°
2026-05-01 12:49 51.68480 0.01323 27939 ft 432 kts 290°
2026-05-01 12:50 51.69730 -0.03068 27413 ft 465 kts 291°
2026-05-01 12:50 51.71105 -0.07933 26733 ft 484 kts 291°
2026-05-01 12:50 51.72504 -0.12881 26059 ft 484 kts 291°
2026-05-01 12:50 51.73890 -0.17797 25389 ft 479 kts 291°
2026-05-01 12:51 51.75238 -0.22602 24769 ft 474 kts 291°
2026-05-01 12:51 51.76602 -0.27490 24130 ft 469 kts 290°
2026-05-01 12:51 51.79234 -0.36950 22724 ft 459 kts 291°
2026-05-01 12:52 51.80883 -0.41301 22313 ft 453 kts 307°
2026-05-01 12:52 51.85954 -0.47434 21973 ft 462 kts 328°
2026-05-01 12:52 51.88745 -0.50026 21969 ft 462 kts 328°
2026-05-01 12:53 51.94261 -0.55239 21942 ft 457 kts 327°
2026-05-01 12:53 51.96994 -0.57880 21918 ft 455 kts 327°
2026-05-01 12:53 51.99699 -0.60518 21508 ft 447 kts 326°
2026-05-01 12:54 52.02279 -0.63042 20678 ft 425 kts 326°
2026-05-01 12:54 52.07243 -0.67927 18183 ft 412 kts 326°
2026-05-01 12:54 52.09722 -0.70377 16969 ft 423 kts 326°
2026-05-01 12:55 52.14802 -0.75398 15978 ft 426 kts 326°
2026-05-01 12:55 52.17322 -0.77888 15784 ft 421 kts 326°
2026-05-01 12:55 52.19812 -0.80352 15577 ft 417 kts 326°
2026-05-01 12:56 52.22282 -0.82799 15317 ft 415 kts 326°
2026-05-01 12:56 52.24742 -0.85241 15004 ft 414 kts 326°
2026-05-01 12:56 52.27200 -0.87679 14716 ft 413 kts 326°
2026-05-01 12:56 52.29649 -0.90102 14427 ft 411 kts 327°
2026-05-01 12:57 52.32087 -0.92516 14165 ft 409 kts 327°
2026-05-01 12:57 52.36902 -0.97297 13571 ft 406 kts 326°
2026-05-01 12:57 52.39355 -0.99506 13214 ft 402 kts 337°
2026-05-01 12:58 52.42003 -1.00422 12863 ft 406 kts 357°
2026-05-01 12:58 52.44795 -0.99935 12508 ft 401 kts 15°
2026-05-01 12:58 52.47470 -0.98695 12167 ft 397 kts 17°
2026-05-01 12:59 52.52690 -0.96259 11474 ft 383 kts 16°
2026-05-01 12:59 52.55234 -0.95127 11137 ft 376 kts 15°
2026-05-01 12:59 52.60221 -0.93776 10475 ft 354 kts 348°
2026-05-01 13:00 52.63807 -0.98354 9984 ft 323 kts 287°
2026-05-01 13:00 52.64052 -1.01825 9982 ft 295 kts 255°
2026-05-01 13:01 52.62222 -1.05922 9611 ft 265 kts 202°
2026-05-01 13:01 52.60616 -1.07256 9438 ft 260 kts 217°
2026-05-01 13:01 52.59232 -1.12674 9211 ft 274 kts 273°
2026-05-01 13:02 52.59977 -1.16638 9080 ft 275 kts 288°
2026-05-01 13:07 52.78918 -1.59284 3293 ft 201 kts 356°
2026-05-01 13:07 52.80299 -1.59230 3024 ft 198 kts
2026-05-01 13:07 52.81571 -1.58577 2614 ft 193 kts 41°
2026-05-01 13:08 52.82285 -1.56881 2283 ft 171 kts 81°
2026-05-01 13:08 52.82399 -1.55020 2065 ft 162 kts 84°
2026-05-01 13:08 52.82594 -1.53149 1916 ft 165 kts 84°
2026-05-01 13:08 52.82726 -1.51361 1731 ft 149 kts 89°
2026-05-01 13:09 52.82783 -1.49723 1809 ft 143 kts 91°
2026-05-01 13:09 52.82818 -1.48072 1767 ft 145 kts 93°
2026-05-01 13:09 52.82852 -1.46409 1756 ft 143 kts 92°
2026-05-01 13:09 52.82878 -1.44694 1511 ft 151 kts 91°
2026-05-01 13:10 52.82912 -1.42996 1326 ft 147 kts 92°
2026-05-01 13:10 52.82942 -1.41347 1153 ft 144 kts 92°
2026-05-01 13:10 52.82973 -1.39674 948 ft 148 kts 93°
2026-05-01 13:10 52.83005 -1.38041 731 ft 138 kts 91°
2026-05-01 13:11 52.83046 -1.36445 519 ft 140 kts 94°
2026-05-01 13:11 52.83063 -1.34821 356 ft 144 kts 91°
2026-05-01 13:11 52.83089 -1.33273 313 ft 118 kts 88°
2026-05-01 13:11 52.83111 -1.32226 307 ft 64 kts 88°
2026-05-01 13:12 52.83121 -1.31663 308 ft 41 kts 89°
2026-05-01 13:12 52.83119 -1.31377 306 ft 17 kts 116°
2026-05-01 13:12 52.83030 -1.31320 301 ft 7 kts 174°
2026-05-01 13:12 52.83002 -1.31317 302 ft 0 kts 179°
2026-05-01 13:13 52.82999 -1.31317 302 ft 1 kts 181°
2026-05-01 13:13 52.82992 -1.31319 301 ft 1 kts 185°
2026-05-01 13:13 52.82981 -1.31323 300 ft 2 kts 200°
2026-05-01 13:13 52.82972 -1.31338 305 ft 2 kts 227°
2026-05-01 13:14 52.82965 -1.31358 304 ft 2 kts 244°
2026-05-01 13:14 52.82958 -1.31414 305 ft 10 kts 264°
2026-05-01 13:14 52.82954 -1.31586 303 ft 15 kts 265°
2026-05-01 13:14 52.82925 -1.31693 306 ft 8 kts 213°
2026-05-01 13:15 52.82888 -1.31752 307 ft 8 kts 257°
2026-05-01 13:15 52.82883 -1.31843 306 ft 8 kts 267°
2026-05-01 13:15 52.82882 -1.31925 306 ft 8 kts 268°
2026-05-01 13:15 52.82880 -1.32018 306 ft 8 kts 268°
2026-05-01 13:16 52.82884 -1.32109 305 ft 8 kts 300°
2026-05-01 13:16 52.82927 -1.32175 308 ft 9 kts 303°
2026-05-01 13:16 52.82939 -1.32271 306 ft 9 kts 276°
2026-05-01 13:17 52.82937 -1.32570 307 ft 9 kts 266°
2026-05-01 13:17 52.82933 -1.32671 308 ft 9 kts 266°
2026-05-01 13:18 52.82930 -1.32880 309 ft 9 kts 270°
2026-05-01 13:18 52.82930 -1.32991 309 ft 10 kts 270°
2026-05-01 13:18 52.82931 -1.33107 310 ft 10 kts 270°
2026-05-01 13:18 52.82929 -1.33226 311 ft 11 kts 265°
2026-05-01 13:19 52.82922 -1.33368 313 ft 14 kts 265°
2026-05-01 13:19 52.82914 -1.33556 313 ft 17 kts 267°
2026-05-01 13:19 52.82910 -1.33953 315 ft 17 kts 269°
2026-05-01 13:20 52.82908 -1.34151 316 ft 17 kts 269°
2026-05-01 13:20 52.82905 -1.34346 317 ft 16 kts 261°
2026-05-01 13:20 52.82836 -1.34488 318 ft 16 kts 253°
2026-05-01 13:21 52.82828 -1.34823 320 ft 11 kts 269°
2026-05-01 13:21 52.82827 -1.34880 320 ft 3 kts 268°
2026-05-01 13:21 52.82822 -1.34917 320 ft 3 kts 246°
2026-05-01 13:21 52.82804 -1.34941 319 ft 3 kts 208°
2026-05-01 13:22 52.82781 -1.34949 320 ft 4 kts 186°
2026-05-01 13:22 52.82756 -1.34950 320 ft 4 kts 179°
2026-05-01 13:22 52.82752 -1.34950 320 ft 0 kts 180°